owner,sensor,date,latitude,longitude,vertical_datum,wind_speed,wind_to_direction,wind_speed_of_gust,qcFlag 
DISL,ioos:station:DISL:DISL:1,2008-02-01T00:00:00Z,30.2513,-88.0778,9.68,5.9,154.5,-9999.0,'1111122,1111122,1111122' 
DISL,ioos:station:DISL:DISL:1,2008-02-01T00:30:00Z,30.2513,-88.0778,9.68,6.61,162.5,-9999.0,'1111122,1111122,1111122' 
DISL,ioos:station:DISL:DISL:1,2008-02-01T01:00:00Z,30.2513,-88.0778,9.68,4.21,180.8,-9999.0,'1111122,1111122,1111122' 
DISL,ioos:station:DISL:DISL:1,2008-02-01T01:30:00Z,30.2513,-88.0778,9.68,5.68,159.2,-9999.0,'1111122,1111122,1111122' 
DISL,ioos:station:DISL:DISL:1,2008-02-01T02:00:00Z,30.2513,-88.0778,9.68,5.87,169.3,-9999.0,'1111122,1111122,1111122' 
DISL,ioos:station:DISL:DISL:1,2008-02-01T02:30:00Z,30.2513,-88.0778,9.68,6.95,287.0,-9999.0,'1111122,1111122,1111122' 
DISL,ioos:station:DISL:DISL:1,2008-02-01T03:00:00Z,30.2513,-88.0778,9.68,6.1,255.3,-9999.0,'1111122,1111122,1111122' 
DISL,ioos:station:DISL:DISL:1,2008-02-01T03:30:00Z,30.2513,-88.0778,9.68,3.57,238.9,-9999.0,'1111122,1111122,1111122' 
DISL,ioos:station:DISL:DISL:1,2008-02-01T04:00:00Z,30.2513,-88.0778,9.68,3.71,250.7,-9999.0,'1111122,1111122,1111122' 
DISL,ioos:station:DISL:DISL:1,2008-02-01T04:30:00Z,30.2513,-88.0778,9.68,5.32,265.2,-9999.0,'1111122,1111122,1111122' 
DISL,ioos:station:DISL:DISL:1,2008-02-01T05:00:00Z,30.2513,-88.0778,9.68,6.18,267.8,-9999.0,'1111122,1111122,1111122' 
DISL,ioos:station:DISL:DISL:1,2008-02-01T05:30:00Z,30.2513,-88.0778,9.68,5.95,278.9,-9999.0,'1111122,1111122,1111122' 
DISL,ioos:station:DISL:DISL:1,2008-02-01T06:00:00Z,30.2513,-88.0778,9.68,7.4,292.4,-9999.0,'1111122,1111122,1111122' 
DISL,ioos:station:DISL:DISL:1,2008-02-01T06:30:00Z,30.2513,-88.0778,9.68,8.29,298.9,-9999.0,'1111122,1111122,1111122' 
DISL,ioos:station:DISL:DISL:1,2008-02-01T07:00:00Z,30.2513,-88.0778,9.68,6.64,298.5,-9999.0,'1111122,1111122,1111122' 
DISL,ioos:station:DISL:DISL:1,2008-02-01T07:30:00Z,30.2513,-88.0778,9.68,6.91,295.0,-9999.0,'1111122,1111122,1111122' 
DISL,ioos:station:DISL:DISL:1,2008-02-01T08:00:00Z,30.2513,-88.0778,9.68,6.28,290.7,-9999.0,'1111122,1111122,1111122' 
DISL,ioos:station:DISL:DISL:1,2008-02-01T08:30:00Z,30.2513,-88.0778,9.68,6.08,287.1,-9999.0,'1111122,1111122,1111122' 
DISL,ioos:station:DISL:DISL:1,2008-02-01T09:00:00Z,30.2513,-88.0778,9.68,9.06,292.9,-9999.0,'1111122,1111122,1111122' 
DISL,ioos:station:DISL:DISL:1,2008-02-01T09:30:00Z,30.2513,-88.0778,9.68,8.28,297.4,-9999.0,'1111122,1111122,1111122' 
DISL,ioos:station:DISL:DISL:1,2008-02-01T10:00:00Z,30.2513,-88.0778,9.68,8.26,299.4,-9999.0,'1111122,1111122,1111122' 
DISL,ioos:station:DISL:DISL:1,2008-02-01T10:30:00Z,30.2513,-88.0778,9.68,8.71,294.8,-9999.0,'1111122,1111122,1111122' 
DISL,ioos:station:DISL:DISL:1,2008-02-01T11:00:00Z,30.2513,-88.0778,9.68,9.5,295.5,-9999.0,'1111122,1111122,1111122' 
DISL,ioos:station:DISL:DISL:1,2008-02-01T11:30:00Z,30.2513,-88.0778,9.68,8.86,302.1,-9999.0,'1111122,1111122,1111122' 
DISL,ioos:station:DISL:DISL:1,2008-02-01T12:00:00Z,30.2513,-88.0778,9.68,8.19,305.5,-9999.0,'1111122,1111122,1111122' 
DISL,ioos:station:DISL:DISL:1,2008-02-01T12:30:00Z,30.2513,-88.0778,9.68,7.93,308.6,-9999.0,'1111122,1111122,1111122' 
DISL,ioos:station:DISL:DISL:1,2008-02-01T13:00:00Z,30.2513,-88.0778,9.68,7.41,304.4,-9999.0,'1111122,1111122,1111122' 
DISL,ioos:station:DISL:DISL:1,2008-02-01T13:30:00Z,30.2513,-88.0778,9.68,7.47,308.8,-9999.0,'1111122,1111122,1111122' 
DISL,ioos:station:DISL:DISL:1,2008-02-01T14:00:00Z,30.2513,-88.0778,9.68,8.08,317.7,-9999.0,'1111122,1111122,1111122' 
DISL,ioos:station:DISL:DISL:1,2008-02-01T14:30:00Z,30.2513,-88.0778,9.68,5.24,318.7,-9999.0,'1111122,1111122,1111122' 
DISL,ioos:station:DISL:DISL:1,2008-02-01T15:00:00Z,30.2513,-88.0778,9.68,3.41,326.1,-9999.0,'1111122,1111122,1111122' 
DISL,ioos:station:DISL:DISL:1,2008-02-01T15:30:00Z,30.2513,-88.0778,9.68,3.56,324.5,-9999.0,'1111122,1111122,1111122' 
DISL,ioos:station:DISL:DISL:1,2008-02-01T16:00:00Z,30.2513,-88.0778,9.68,2.04,353.9,-9999.0,'1111122,1111122,1111122' 
DISL,ioos:station:DISL:DISL:1,2008-02-01T16:30:00Z,30.2513,-88.0778,9.68,1.47,1.488,-9999.0,'1111122,1111122,1111122' 
DISL,ioos:station:DISL:DISL:1,2008-02-01T17:00:00Z,30.2513,-88.0778,9.68,1.74,19.88,-9999.0,'1111122,1111122,1111122' 
DISL,ioos:station:DISL:DISL:1,2008-02-01T17:30:00Z,30.2513,-88.0778,9.68,1.71,358.0,-9999.0,'1111122,1111122,1111122' 
DISL,ioos:station:DISL:DISL:1,2008-02-01T18:00:00Z,30.2513,-88.0778,9.68,1.7,9.6,-9999.0,'1111122,1111122,1111122' 
DISL,ioos:station:DISL:DISL:1,2008-02-01T18:30:00Z,30.2513,-88.0778,9.68,1.33,20.7,-9999.0,'1111122,1111122,1111122' 
DISL,ioos:station:DISL:DISL:1,2008-02-01T19:00:00Z,30.2513,-88.0778,9.68,2.05,51.89,-9999.0,'1111122,1111122,1111122' 
DISL,ioos:station:DISL:DISL:1,2008-02-01T19:30:00Z,30.2513,-88.0778,9.68,0.93,96.9,-9999.0,'1111122,1111122,1111122' 
DISL,ioos:station:DISL:DISL:1,2008-02-01T20:00:00Z,30.2513,-88.0778,9.68,1.32,69.43,-9999.0,'1111122,1111122,1111122' 
DISL,ioos:station:DISL:DISL:1,2008-02-01T20:30:00Z,30.2513,-88.0778,9.68,1.6,80.6,-9999.0,'1111122,1111122,1111122' 
DISL,ioos:station:DISL:DISL:1,2008-02-01T21:00:00Z,30.2513,-88.0778,9.68,1.55,45.94,-9999.0,'1111122,1111122,1111122' 
DISL,ioos:station:DISL:DISL:1,2008-02-01T21:30:00Z,30.2513,-88.0778,9.68,1.21,29.86,-9999.0,'1111122,1111122,1111122' 
DISL,ioos:station:DISL:DISL:1,2008-02-01T22:00:00Z,30.2513,-88.0778,9.68,0.72,41.98,-9999.0,'1111122,1111122,1111122' 
DISL,ioos:station:DISL:DISL:1,2008-02-01T22:30:00Z,30.2513,-88.0778,9.68,0.65,0.377,-9999.0,'1111122,1111122,1111122' 
DISL,ioos:station:DISL:DISL:1,2008-02-01T23:00:00Z,30.2513,-88.0778,9.68,1.44,341.3,-9999.0,'1111122,1111122,1111122' 
DISL,ioos:station:DISL:DISL:1,2008-02-01T23:30:00Z,30.2513,-88.0778,9.68,0.54,302.8,-9999.0,'1111122,1111122,1111122' 
DISL,ioos:station:DISL:DISL:1,2008-02-02T00:00:00Z,30.2513,-88.0778,9.68,1.84,279.3,-9999.0,'1111122,1111122,1111122' 
DISL,ioos:station:DISL:DISL:1,2008-02-02T00:30:00Z,30.2513,-88.0778,9.68,2.11,252.8,-9999.0,'1111122,1111122,1111122' 
DISL,ioos:station:DISL:DISL:1,2008-02-02T01:00:00Z,30.2513,-88.0778,9.68,2.57,234.7,-9999.0,'1111122,1111122,1111122' 
DISL,ioos:station:DISL:DISL:1,2008-02-02T01:30:00Z,30.2513,-88.0778,9.68,1.28,308.6,-9999.0,'1111122,1111122,1111122' 
DISL,ioos:station:DISL:DISL:1,2008-02-02T02:00:00Z,30.2513,-88.0778,9.68,0.49,279.6,-9999.0,'1111122,1111122,1111122' 
DISL,ioos:station:DISL:DISL:1,2008-02-02T02:30:00Z,30.2513,-88.0778,9.68,0.07,139.2,-9999.0,'1111122,1111122,1111122' 
DISL,ioos:station:DISL:DISL:1,2008-02-02T03:00:00Z,30.2513,-88.0778,9.68,1.1,38.55,-9999.0,'1111122,1111122,1111122' 
DISL,ioos:station:DISL:DISL:1,2008-02-02T03:30:00Z,30.2513,-88.0778,9.68,3.09,67.27,-9999.0,'1111122,1111122,1111122' 
DISL,ioos:station:DISL:DISL:1,2008-02-02T04:00:00Z,30.2513,-88.0778,9.68,3.69,84.2,-9999.0,'1111122,1111122,1111122' 
DISL,ioos:station:DISL:DISL:1,2008-02-02T04:30:00Z,30.2513,-88.0778,9.68,4.06,98.3,-9999.0,'1111122,1111122,1111122' 
DISL,ioos:station:DISL:DISL:1,2008-02-02T05:00:00Z,30.2513,-88.0778,9.68,4.67,93.2,-9999.0,'1111122,1111122,1111122' 
DISL,ioos:station:DISL:DISL:1,2008-02-02T05:30:00Z,30.2513,-88.0778,9.68,3.81,86.5,-9999.0,'1111122,1111122,1111122' 
DISL,ioos:station:DISL:DISL:1,2008-02-02T06:00:00Z,30.2513,-88.0778,9.68,3.12,50.76,-9999.0,'1111122,1111122,1111122' 
DISL,ioos:station:DISL:DISL:1,2008-02-02T06:30:00Z,30.2513,-88.0778,9.68,3.35,31.57,-9999.0,'1111122,1111122,1111122' 
DISL,ioos:station:DISL:DISL:1,2008-02-02T07:00:00Z,30.2513,-88.0778,9.68,3.47,58.54,-9999.0,'1111122,1111122,1111122' 
DISL,ioos:station:DISL:DISL:1,2008-02-02T07:30:00Z,30.2513,-88.0778,9.68,3.52,61.57,-9999.0,'1111122,1111122,1111122' 
DISL,ioos:station:DISL:DISL:1,2008-02-02T08:00:00Z,30.2513,-88.0778,9.68,3.55,71.0,-9999.0,'1111122,1111122,1111122' 
DISL,ioos:station:DISL:DISL:1,2008-02-02T08:30:00Z,30.2513,-88.0778,9.68,3.59,83.8,-9999.0,'1111122,1111122,1111122' 
DISL,ioos:station:DISL:DISL:1,2008-02-02T09:00:00Z,30.2513,-88.0778,9.68,3.6,77.2,-9999.0,'1111122,1111122,1111122' 
DISL,ioos:station:DISL:DISL:1,2008-02-02T09:30:00Z,30.2513,-88.0778,9.68,3.57,69.69,-9999.0,'1111122,1111122,1111122' 
DISL,ioos:station:DISL:DISL:1,2008-02-02T10:00:00Z,30.2513,-88.0778,9.68,3.27,61.25,-9999.0,'1111122,1111122,1111122' 
DISL,ioos:station:DISL:DISL:1,2008-02-02T10:30:00Z,30.2513,-88.0778,9.68,2.94,46.58,-9999.0,'1111122,1111122,1111122' 
DISL,ioos:station:DISL:DISL:1,2008-02-02T11:00:00Z,30.2513,-88.0778,9.68,3.48,27.14,-9999.0,'1111122,1111122,1111122' 
DISL,ioos:station:DISL:DISL:1,2008-02-02T11:30:00Z,30.2513,-88.0778,9.68,3.65,54.24,-9999.0,'1111122,1111122,1111122' 
DISL,ioos:station:DISL:DISL:1,2008-02-02T12:00:00Z,30.2513,-88.0778,9.68,3.61,33.74,-9999.0,'1111122,1111122,1111122' 
DISL,ioos:station:DISL:DISL:1,2008-02-02T12:30:00Z,30.2513,-88.0778,9.68,4.02,41.02,-9999.0,'1111122,1111122,1111122' 
DISL,ioos:station:DISL:DISL:1,2008-02-02T13:00:00Z,30.2513,-88.0778,9.68,4.41,65.73,-9999.0,'1111122,1111122,1111122' 
DISL,ioos:station:DISL:DISL:1,2008-02-02T13:30:00Z,30.2513,-88.0778,9.68,5.38,68.02,-9999.0,'1111122,1111122,1111122' 
DISL,ioos:station:DISL:DISL:1,2008-02-02T14:00:00Z,30.2513,-88.0778,9.68,6.03,75.7,-9999.0,'1111122,1111122,1111122' 
DISL,ioos:station:DISL:DISL:1,2008-02-02T14:30:00Z,30.2513,-88.0778,9.68,4.31,75.6,-9999.0,'1111122,1111122,1111122' 
DISL,ioos:station:DISL:DISL:1,2008-02-02T15:00:00Z,30.2513,-88.0778,9.68,3.99,73.8,-9999.0,'1111122,1111122,1111122' 
DISL,ioos:station:DISL:DISL:1,2008-02-02T15:30:00Z,30.2513,-88.0778,9.68,3.44,71.4,-9999.0,'1111122,1111122,1111122' 
DISL,ioos:station:DISL:DISL:1,2008-02-02T16:00:00Z,30.2513,-88.0778,9.68,3.16,73.6,-9999.0,'1111122,1111122,1111122' 
DISL,ioos:station:DISL:DISL:1,2008-02-02T16:30:00Z,30.2513,-88.0778,9.68,2.59,56.65,-9999.0,'1111122,1111122,1111122' 
DISL,ioos:station:DISL:DISL:1,2008-02-02T17:00:00Z,30.2513,-88.0778,9.68,2.31,54.46,-9999.0,'1111122,1111122,1111122' 
DISL,ioos:station:DISL:DISL:1,2008-02-02T17:30:00Z,30.2513,-88.0778,9.68,2.06,57.28,-9999.0,'1111122,1111122,1111122' 
DISL,ioos:station:DISL:DISL:1,2008-02-02T18:00:00Z,30.2513,-88.0778,9.68,2.31,78.9,-9999.0,'1111122,1111122,1111122' 
DISL,ioos:station:DISL:DISL:1,2008-02-02T18:30:00Z,30.2513,-88.0778,9.68,4.67,110.7,-9999.0,'1111122,1111122,1111122' 
DISL,ioos:station:DISL:DISL:1,2008-02-02T19:00:00Z,30.2513,-88.0778,9.68,3.89,109.2,-9999.0,'1111122,1111122,1111122' 
DISL,ioos:station:DISL:DISL:1,2008-02-02T19:30:00Z,30.2513,-88.0778,9.68,3.87,105.6,-9999.0,'1111122,1111122,1111122' 
DISL,ioos:station:DISL:DISL:1,2008-02-02T20:00:00Z,30.2513,-88.0778,9.68,3.59,110.0,-9999.0,'1111122,1111122,1111122' 
DISL,ioos:station:DISL:DISL:1,2008-02-02T20:30:00Z,30.2513,-88.0778,9.68,2.94,107.8,-9999.0,'1111122,1111122,1111122' 
DISL,ioos:station:DISL:DISL:1,2008-02-02T21:00:00Z,30.2513,-88.0778,9.68,1.58,63.13,-9999.0,'1111122,1111122,1111122' 
DISL,ioos:station:DISL:DISL:1,2008-02-02T21:30:00Z,30.2513,-88.0778,9.68,1.3,71.2,-9999.0,'1111122,1111122,1111122' 
DISL,ioos:station:DISL:DISL:1,2008-02-02T22:00:00Z,30.2513,-88.0778,9.68,2.87,105.6,-9999.0,'1111122,1111122,1111122' 
DISL,ioos:station:DISL:DISL:1,2008-02-02T22:30:00Z,30.2513,-88.0778,9.68,2.55,119.4,-9999.0,'1111122,1111122,1111122' 
DISL,ioos:station:DISL:DISL:1,2008-02-02T23:00:00Z,30.2513,-88.0778,9.68,2.86,113.3,-9999.0,'1111122,1111122,1111122' 
DISL,ioos:station:DISL:DISL:1,2008-02-02T23:30:00Z,30.2513,-88.0778,9.68,3.0,113.2,-9999.0,'1111122,1111122,1111122' 
DISL,ioos:station:DISL:DISL:1,2008-02-03T00:00:00Z,30.2513,-88.0778,9.68,3.49,117.7,-9999.0,'1111122,1111122,1111122' 
DISL,ioos:station:DISL:DISL:1,2008-02-03T00:30:00Z,30.2513,-88.0778,9.68,4.85,109.1,-9999.0,'1111122,1111122,1111122' 
DISL,ioos:station:DISL:DISL:1,2008-02-03T01:00:00Z,30.2513,-88.0778,9.68,5.43,101.7,-9999.0,'1111122,1111122,1111122' 
DISL,ioos:station:DISL:DISL:1,2008-02-03T01:30:00Z,30.2513,-88.0778,9.68,4.72,100.7,-9999.0,'1111122,1111122,1111122' 
DISL,ioos:station:DISL:DISL:1,2008-02-03T02:00:00Z,30.2513,-88.0778,9.68,3.95,97.2,-9999.0,'1111122,1111122,1111122' 
DISL,ioos:station:DISL:DISL:1,2008-02-03T02:30:00Z,30.2513,-88.0778,9.68,3.16,87.1,-9999.0,'1111122,1111122,1111122' 
DISL,ioos:station:DISL:DISL:1,2008-02-03T03:00:00Z,30.2513,-88.0778,9.68,3.81,91.5,-9999.0,'1111122,1111122,1111122' 
DISL,ioos:station:DISL:DISL:1,2008-02-03T03:30:00Z,30.2513,-88.0778,9.68,2.66,80.6,-9999.0,'1111122,1111122,1111122' 
DISL,ioos:station:DISL:DISL:1,2008-02-03T04:00:00Z,30.2513,-88.0778,9.68,2.55,78.9,-9999.0,'1111122,1111122,1111122' 
DISL,ioos:station:DISL:DISL:1,2008-02-03T04:30:00Z,30.2513,-88.0778,9.68,3.8,67.12,-9999.0,'1111122,1111122,1111122' 
DISL,ioos:station:DISL:DISL:1,2008-02-03T05:00:00Z,30.2513,-88.0778,9.68,3.69,74.4,-9999.0,'1111122,1111122,1111122' 
DISL,ioos:station:DISL:DISL:1,2008-02-03T05:30:00Z,30.2513,-88.0778,9.68,3.87,77.7,-9999.0,'1111122,1111122,1111122' 
DISL,ioos:station:DISL:DISL:1,2008-02-03T06:00:00Z,30.2513,-88.0778,9.68,3.7,82.1,-9999.0,'1111122,1111122,1111122' 
DISL,ioos:station:DISL:DISL:1,2008-02-03T06:30:00Z,30.2513,-88.0778,9.68,3.41,92.0,-9999.0,'1111122,1111122,1111122' 
DISL,ioos:station:DISL:DISL:1,2008-02-03T07:00:00Z,30.2513,-88.0778,9.68,2.58,102.2,-9999.0,'1111122,1111122,1111122' 
DISL,ioos:station:DISL:DISL:1,2008-02-03T07:30:00Z,30.2513,-88.0778,9.68,1.65,108.7,-9999.0,'1111122,1111122,1111122' 
DISL,ioos:station:DISL:DISL:1,2008-02-03T08:00:00Z,30.2513,-88.0778,9.68,0.5,86.2,-9999.0,'1111122,1111122,1111122' 
DISL,ioos:station:DISL:DISL:1,2008-02-03T08:30:00Z,30.2513,-88.0778,9.68,1.09,109.2,-9999.0,'1111122,1111122,1111122' 
DISL,ioos:station:DISL:DISL:1,2008-02-03T09:00:00Z,30.2513,-88.0778,9.68,1.5,96.9,-9999.0,'1111122,1111122,1111122' 
DISL,ioos:station:DISL:DISL:1,2008-02-03T09:30:00Z,30.2513,-88.0778,9.68,1.79,105.0,-9999.0,'1111122,1111122,1111122' 
DISL,ioos:station:DISL:DISL:1,2008-02-03T10:00:00Z,30.2513,-88.0778,9.68,1.01,96.2,-9999.0,'1111122,1111122,1111122' 
DISL,ioos:station:DISL:DISL:1,2008-02-03T10:30:00Z,30.2513,-88.0778,9.68,1.57,123.6,-9999.0,'1111122,1111122,1111122' 
DISL,ioos:station:DISL:DISL:1,2008-02-03T11:00:00Z,30.2513,-88.0778,9.68,1.44,132.8,-9999.0,'1111122,1111122,1111122' 
DISL,ioos:station:DISL:DISL:1,2008-02-03T11:30:00Z,30.2513,-88.0778,9.68,0.68,162.5,-9999.0,'1111122,1111122,1111122' 
DISL,ioos:station:DISL:DISL:1,2008-02-03T12:00:00Z,30.2513,-88.0778,9.68,0.12,116.8,-9999.0,'1111122,1111122,1111122' 
DISL,ioos:station:DISL:DISL:1,2008-02-03T12:30:00Z,30.2513,-88.0778,9.68,1.51,124.5,-9999.0,'1111122,1111122,1111122' 
DISL,ioos:station:DISL:DISL:1,2008-02-03T13:00:00Z,30.2513,-88.0778,9.68,2.69,105.3,-9999.0,'1111122,1111122,1111122' 
DISL,ioos:station:DISL:DISL:1,2008-02-03T13:30:00Z,30.2513,-88.0778,9.68,0.72,75.0,-9999.0,'1111122,1111122,1111122' 
DISL,ioos:station:DISL:DISL:1,2008-02-03T14:00:00Z,30.2513,-88.0778,9.68,1.5,97.1,-9999.0,'1111122,1111122,1111122' 
DISL,ioos:station:DISL:DISL:1,2008-02-03T14:30:00Z,30.2513,-88.0778,9.68,2.07,106.7,-9999.0,'1111122,1111122,1111122' 
DISL,ioos:station:DISL:DISL:1,2008-02-03T15:00:00Z,30.2513,-88.0778,9.68,2.4,111.1,-9999.0,'1111122,1111122,1111122' 
DISL,ioos:station:DISL:DISL:1,2008-02-03T15:30:00Z,30.2513,-88.0778,9.68,3.97,125.9,-9999.0,'1111122,1111122,1111122' 
DISL,ioos:station:DISL:DISL:1,2008-02-03T16:00:00Z,30.2513,-88.0778,9.68,5.16,129.1,-9999.0,'1111122,1111122,1111122' 
DISL,ioos:station:DISL:DISL:1,2008-02-03T16:30:00Z,30.2513,-88.0778,9.68,4.02,142.8,-9999.0,'1111122,1111122,1111122' 
DISL,ioos:station:DISL:DISL:1,2008-02-03T17:00:00Z,30.2513,-88.0778,9.68,4.08,127.2,-9999.0,'1111122,1111122,1111122' 
DISL,ioos:station:DISL:DISL:1,2008-02-03T17:30:00Z,30.2513,-88.0778,9.68,3.45,126.8,-9999.0,'1111122,1111122,1111122' 
DISL,ioos:station:DISL:DISL:1,2008-02-03T18:00:00Z,30.2513,-88.0778,9.68,2.41,123.5,-9999.0,'1111122,1111122,1111122' 
DISL,ioos:station:DISL:DISL:1,2008-02-03T18:30:00Z,30.2513,-88.0778,9.68,3.73,127.4,-9999.0,'1111122,1111122,1111122' 
DISL,ioos:station:DISL:DISL:1,2008-02-03T19:00:00Z,30.2513,-88.0778,9.68,4.25,128.5,-9999.0,'1111122,1111122,1111122' 
DISL,ioos:station:DISL:DISL:1,2008-02-03T19:30:00Z,30.2513,-88.0778,9.68,4.34,125.2,-9999.0,'1111122,1111122,1111122' 
DISL,ioos:station:DISL:DISL:1,2008-02-03T20:00:00Z,30.2513,-88.0778,9.68,3.89,126.9,-9999.0,'1111122,1111122,1111122' 
DISL,ioos:station:DISL:DISL:1,2008-02-03T20:30:00Z,30.2513,-88.0778,9.68,4.53,130.3,-9999.0,'1111122,1111122,1111122' 
DISL,ioos:station:DISL:DISL:1,2008-02-03T21:00:00Z,30.2513,-88.0778,9.68,2.72,125.3,-9999.0,'1111122,1111122,1111122' 
DISL,ioos:station:DISL:DISL:1,2008-02-03T21:30:00Z,30.2513,-88.0778,9.68,3.03,117.6,-9999.0,'1111122,1111122,1111122' 
DISL,ioos:station:DISL:DISL:1,2008-02-03T22:00:00Z,30.2513,-88.0778,9.68,3.32,122.2,-9999.0,'1111122,1111122,1111122' 
DISL,ioos:station:DISL:DISL:1,2008-02-03T22:30:00Z,30.2513,-88.0778,9.68,3.73,122.9,-9999.0,'1111122,1111122,1111122' 
DISL,ioos:station:DISL:DISL:1,2008-02-03T23:00:00Z,30.2513,-88.0778,9.68,3.65,123.8,-9999.0,'1111122,1111122,1111122' 
DISL,ioos:station:DISL:DISL:1,2008-02-03T23:30:00Z,30.2513,-88.0778,9.68,3.24,108.3,-9999.0,'1111122,1111122,1111122' 
DISL,ioos:station:DISL:DISL:1,2008-02-04T00:00:00Z,30.2513,-88.0778,9.68,4.32,114.2,-9999.0,'1111122,1111122,1111122' 
DISL,ioos:station:DISL:DISL:1,2008-02-04T00:30:00Z,30.2513,-88.0778,9.68,3.96,112.3,-9999.0,'1111122,1111122,1111122' 
DISL,ioos:station:DISL:DISL:1,2008-02-04T01:00:00Z,30.2513,-88.0778,9.68,4.57,115.3,-9999.0,'1111122,1111122,1111122' 
DISL,ioos:station:DISL:DISL:1,2008-02-04T01:30:00Z,30.2513,-88.0778,9.68,3.66,127.4,-9999.0,'1111122,1111122,1111122' 
DISL,ioos:station:DISL:DISL:1,2008-02-04T02:00:00Z,30.2513,-88.0778,9.68,3.99,125.3,-9999.0,'1111122,1111122,1111122' 
DISL,ioos:station:DISL:DISL:1,2008-02-04T02:30:00Z,30.2513,-88.0778,9.68,3.85,121.6,-9999.0,'1111122,1111122,1111122' 
DISL,ioos:station:DISL:DISL:1,2008-02-04T03:00:00Z,30.2513,-88.0778,9.68,4.57,129.3,-9999.0,'1111122,1111122,1111122' 
DISL,ioos:station:DISL:DISL:1,2008-02-04T03:30:00Z,30.2513,-88.0778,9.68,3.91,130.8,-9999.0,'1111122,1111122,1111122' 
DISL,ioos:station:DISL:DISL:1,2008-02-04T04:00:00Z,30.2513,-88.0778,9.68,4.3,135.4,-9999.0,'1111122,1111122,1111122' 
DISL,ioos:station:DISL:DISL:1,2008-02-04T04:30:00Z,30.2513,-88.0778,9.68,3.55,136.2,-9999.0,'1111122,1111122,1111122' 
DISL,ioos:station:DISL:DISL:1,2008-02-04T05:00:00Z,30.2513,-88.0778,9.68,3.39,137.5,-9999.0,'1111122,1111122,1111122' 
DISL,ioos:station:DISL:DISL:1,2008-02-04T05:30:00Z,30.2513,-88.0778,9.68,3.12,126.0,-9999.0,'1111122,1111122,1111122' 
DISL,ioos:station:DISL:DISL:1,2008-02-04T06:00:00Z,30.2513,-88.0778,9.68,3.39,132.0,-9999.0,'1111122,1111122,1111122' 
DISL,ioos:station:DISL:DISL:1,2008-02-04T06:30:00Z,30.2513,-88.0778,9.68,3.47,130.1,-9999.0,'1111122,1111122,1111122' 
DISL,ioos:station:DISL:DISL:1,2008-02-04T07:00:00Z,30.2513,-88.0778,9.68,3.98,128.2,-9999.0,'1111122,1111122,1111122' 
DISL,ioos:station:DISL:DISL:1,2008-02-04T07:30:00Z,30.2513,-88.0778,9.68,2.72,137.7,-9999.0,'1111122,1111122,1111122' 
DISL,ioos:station:DISL:DISL:1,2008-02-04T08:00:00Z,30.2513,-88.0778,9.68,3.4,142.9,-9999.0,'1111122,1111122,1111122' 
DISL,ioos:station:DISL:DISL:1,2008-02-04T08:30:00Z,30.2513,-88.0778,9.68,3.0,133.6,-9999.0,'1111122,1111122,1111122' 
DISL,ioos:station:DISL:DISL:1,2008-02-04T09:00:00Z,30.2513,-88.0778,9.68,2.82,144.3,-9999.0,'1111122,1111122,1111122' 
DISL,ioos:station:DISL:DISL:1,2008-02-04T09:30:00Z,30.2513,-88.0778,9.68,2.7,140.8,-9999.0,'1111122,1111122,1111122' 
DISL,ioos:station:DISL:DISL:1,2008-02-04T10:00:00Z,30.2513,-88.0778,9.68,3.04,139.6,-9999.0,'1111122,1111122,1111122' 
DISL,ioos:station:DISL:DISL:1,2008-02-04T10:30:00Z,30.2513,-88.0778,9.68,2.56,140.4,-9999.0,'1111122,1111122,1111122' 
DISL,ioos:station:DISL:DISL:1,2008-02-04T11:00:00Z,30.2513,-88.0778,9.68,3.36,147.5,-9999.0,'1111122,1111122,1111122' 
DISL,ioos:station:DISL:DISL:1,2008-02-04T11:30:00Z,30.2513,-88.0778,9.68,3.17,134.0,-9999.0,'1111122,1111122,1111122' 
DISL,ioos:station:DISL:DISL:1,2008-02-04T12:00:00Z,30.2513,-88.0778,9.68,3.38,133.7,-9999.0,'1111122,1111122,1111122' 
DISL,ioos:station:DISL:DISL:1,2008-02-04T12:30:00Z,30.2513,-88.0778,9.68,3.16,136.4,-9999.0,'1111122,1111122,1111122' 
DISL,ioos:station:DISL:DISL:1,2008-02-04T13:00:00Z,30.2513,-88.0778,9.68,3.52,135.9,-9999.0,'1111122,1111122,1111122' 
DISL,ioos:station:DISL:DISL:1,2008-02-04T13:30:00Z,30.2513,-88.0778,9.68,4.94,144.4,-9999.0,'1111122,1111122,1111122' 
DISL,ioos:station:DISL:DISL:1,2008-02-04T14:00:00Z,30.2513,-88.0778,9.68,4.15,140.8,-9999.0,'1111122,1111122,1111122' 
DISL,ioos:station:DISL:DISL:1,2008-02-04T14:30:00Z,30.2513,-88.0778,9.68,4.29,142.7,-9999.0,'1111122,1111122,1111122' 
DISL,ioos:station:DISL:DISL:1,2008-02-04T15:00:00Z,30.2513,-88.0778,9.68,3.93,139.7,-9999.0,'1111122,1111122,1111122' 
DISL,ioos:station:DISL:DISL:1,2008-02-04T15:30:00Z,30.2513,-88.0778,9.68,4.38,143.0,-9999.0,'1111122,1111122,1111122' 
DISL,ioos:station:DISL:DISL:1,2008-02-04T16:00:00Z,30.2513,-88.0778,9.68,3.98,139.7,-9999.0,'1111122,1111122,1111122' 
DISL,ioos:station:DISL:DISL:1,2008-02-04T16:30:00Z,30.2513,-88.0778,9.68,3.52,137.7,-9999.0,'1111122,1111122,1111122' 
DISL,ioos:station:DISL:DISL:1,2008-02-04T17:00:00Z,30.2513,-88.0778,9.68,3.98,134.3,-9999.0,'1111122,1111122,1111122' 
DISL,ioos:station:DISL:DISL:1,2008-02-04T17:30:00Z,30.2513,-88.0778,9.68,3.59,143.1,-9999.0,'1111122,1111122,1111122' 
DISL,ioos:station:DISL:DISL:1,2008-02-04T18:00:00Z,30.2513,-88.0778,9.68,4.16,136.5,-9999.0,'1111122,1111122,1111122' 
DISL,ioos:station:DISL:DISL:1,2008-02-04T18:30:00Z,30.2513,-88.0778,9.68,4.16,129.2,-9999.0,'1111122,1111122,1111122' 
DISL,ioos:station:DISL:DISL:1,2008-02-04T19:00:00Z,30.2513,-88.0778,9.68,4.53,131.1,-9999.0,'1111122,1111122,1111122' 
DISL,ioos:station:DISL:DISL:1,2008-02-04T19:30:00Z,30.2513,-88.0778,9.68,4.65,129.1,-9999.0,'1111122,1111122,1111122' 
DISL,ioos:station:DISL:DISL:1,2008-02-04T20:00:00Z,30.2513,-88.0778,9.68,4.58,128.1,-9999.0,'1111122,1111122,1111122' 
DISL,ioos:station:DISL:DISL:1,2008-02-04T20:30:00Z,30.2513,-88.0778,9.68,4.26,131.2,-9999.0,'1111122,1111122,1111122' 
DISL,ioos:station:DISL:DISL:1,2008-02-04T21:00:00Z,30.2513,-88.0778,9.68,5.14,130.0,-9999.0,'1111122,1111122,1111122' 
DISL,ioos:station:DISL:DISL:1,2008-02-04T21:30:00Z,30.2513,-88.0778,9.68,4.98,132.8,-9999.0,'1111122,1111122,1111122' 
DISL,ioos:station:DISL:DISL:1,2008-02-04T22:00:00Z,30.2513,-88.0778,9.68,4.35,126.2,-9999.0,'1111122,1111122,1111122' 
DISL,ioos:station:DISL:DISL:1,2008-02-04T22:30:00Z,30.2513,-88.0778,9.68,5.01,125.8,-9999.0,'1111122,1111122,1111122' 
DISL,ioos:station:DISL:DISL:1,2008-02-04T23:00:00Z,30.2513,-88.0778,9.68,4.4,131.6,-9999.0,'1111122,1111122,1111122' 
DISL,ioos:station:DISL:DISL:1,2008-02-04T23:30:00Z,30.2513,-88.0778,9.68,4.55,131.9,-9999.0,'1111122,1111122,1111122' 
DISL,ioos:station:DISL:DISL:1,2008-02-05T00:00:00Z,30.2513,-88.0778,9.68,4.14,144.2,-9999.0,'1111122,1111122,1111122' 
DISL,ioos:station:DISL:DISL:1,2008-02-05T00:30:00Z,30.2513,-88.0778,9.68,3.48,134.9,-9999.0,'1111122,1111122,1111122' 
DISL,ioos:station:DISL:DISL:1,2008-02-05T01:00:00Z,30.2513,-88.0778,9.68,4.05,135.4,-9999.0,'1111122,1111122,1111122' 
DISL,ioos:station:DISL:DISL:1,2008-02-05T01:30:00Z,30.2513,-88.0778,9.68,4.95,138.9,-9999.0,'1111122,1111122,1111122' 
DISL,ioos:station:DISL:DISL:1,2008-02-05T02:00:00Z,30.2513,-88.0778,9.68,4.32,134.4,-9999.0,'1111122,1111122,1111122' 
DISL,ioos:station:DISL:DISL:1,2008-02-05T02:30:00Z,30.2513,-88.0778,9.68,4.59,137.7,-9999.0,'1111122,1111122,1111122' 
DISL,ioos:station:DISL:DISL:1,2008-02-05T03:00:00Z,30.2513,-88.0778,9.68,4.77,136.6,-9999.0,'1111122,1111122,1111122' 
DISL,ioos:station:DISL:DISL:1,2008-02-05T03:30:00Z,30.2513,-88.0778,9.68,4.83,144.9,-9999.0,'1111122,1111122,1111122' 
DISL,ioos:station:DISL:DISL:1,2008-02-05T04:00:00Z,30.2513,-88.0778,9.68,4.58,142.6,-9999.0,'1111122,1111122,1111122' 